XNO8001 EGNS-EGKK

Flight info

Callsign XNO8001
Flight time 0h 47m
Altitude 33000
Route TIMIS Q39 NOMSU UQ4 WAL L151 DISIT
Aircraft A320/M-SDE3FGHIRWY/LB1

Departure

Time 2026-05-07 16:44
Airport Isle of Man Airport (EGNS)

Arrival

Time 2026-05-07 17:31
Airport London Gatwick Airport (EGKK)
Time Latitude Longitude Altitude Speed Heading
2026-05-07 16:16 54.08559 -4.63502 39 ft 0 kts 227°
2026-05-07 16:36 54.08561 -4.63498 41 ft 3 kts 229°
2026-05-07 16:36 54.08577 -4.63461 37 ft 4 kts 242°
2026-05-07 16:37 54.08589 -4.63428 40 ft 4 kts 196°
2026-05-07 16:37 54.08593 -4.63425 40 ft 1 kts 162°
2026-05-07 16:39 54.08590 -4.63423 40 ft 2 kts 161°
2026-05-07 16:39 54.08569 -4.63403 40 ft 5 kts 147°
2026-05-07 16:40 54.08538 -4.63358 40 ft 4 kts 134°
2026-05-07 16:40 54.08508 -4.63329 40 ft 6 kts 189°
2026-05-07 16:40 54.08462 -4.63372 40 ft 9 kts 207°
2026-05-07 16:40 54.08398 -4.63387 40 ft 10 kts 180°
2026-05-07 16:41 54.08353 -4.63475 42 ft 11 kts 261°
2026-05-07 16:41 54.08334 -4.63612 42 ft 12 kts 246°
2026-05-07 16:41 54.08292 -4.63746 45 ft 14 kts 241°
2026-05-07 16:41 54.08253 -4.63862 46 ft 7 kts 239°
2026-05-07 16:42 54.08209 -4.63901 47 ft 8 kts 179°
2026-05-07 16:42 54.08146 -4.63855 45 ft 11 kts 120°
2026-05-07 16:42 54.08157 -4.63751 45 ft 0 kts 76°
2026-05-07 16:43 54.08162 -4.63711 42 ft 24 kts 78°
2026-05-07 16:43 54.08252 -4.62984 40 ft 95 kts 78°
2026-05-07 16:43 54.08426 -4.61604 42 ft 142 kts 78°
2026-05-07 16:44 54.08685 -4.59911 487 ft 149 kts 77°
2026-05-07 16:44 54.08976 -4.58131 854 ft 164 kts 78°
2026-05-07 16:44 54.09093 -4.56233 1337 ft 161 kts 110°
2026-05-07 16:44 54.08529 -4.54684 1862 ft 155 kts 146°
2026-05-07 16:45 54.07513 -4.53974 2141 ft 169 kts 179°
2026-05-07 16:45 54.06301 -4.54365 2375 ft 190 kts 197°
2026-05-07 16:45 54.04946 -4.55045 2665 ft 216 kts 197°
2026-05-07 16:45 54.03422 -4.55803 3148 ft 239 kts 197°
2026-05-07 16:46 54.01797 -4.56605 4002 ft 246 kts 197°
2026-05-07 16:46 54.00134 -4.57418 4938 ft 251 kts 197°
2026-05-07 16:46 53.98445 -4.58236 5849 ft 254 kts 196°
2026-05-07 16:46 53.96680 -4.58615 6738 ft 261 kts 178°
2026-05-07 16:47 53.94910 -4.57825 7593 ft 269 kts 156°
2026-05-07 16:47 53.93409 -4.55882 8437 ft 279 kts 133°
2026-05-07 16:47 53.92266 -4.53176 9303 ft 284 kts 128°
2026-05-07 16:47 53.91143 -4.50384 10105 ft 289 kts 128°
2026-05-07 16:48 53.89965 -4.47467 10401 ft 312 kts 127°
2026-05-07 16:48 53.88691 -4.44330 10585 ft 335 kts 127°
2026-05-07 16:48 53.87325 -4.40969 10756 ft 356 kts 127°
2026-05-07 16:48 53.85902 -4.37461 11263 ft 365 kts 127°
2026-05-07 16:49 53.84456 -4.33900 11907 ft 369 kts 127°
2026-05-07 16:49 53.82992 -4.30300 12557 ft 373 kts 127°
2026-05-07 16:49 53.81511 -4.26670 13208 ft 377 kts 127°
2026-05-07 16:49 53.80011 -4.23008 13845 ft 381 kts 127°
2026-05-07 16:50 53.78491 -4.19308 14431 ft 384 kts 127°
2026-05-07 16:50 53.76961 -4.15584 14983 ft 387 kts 127°
2026-05-07 16:50 53.75417 -4.11832 15545 ft 390 kts 127°
2026-05-07 16:50 53.73857 -4.08052 16098 ft 394 kts 127°
2026-05-07 16:51 53.72282 -4.04242 16648 ft 397 kts 127°
2026-05-07 16:51 53.70692 -4.00410 17209 ft 400 kts 127°
2026-05-07 16:51 53.69088 -3.96541 17774 ft 404 kts 127°
2026-05-07 16:51 53.67472 -3.92642 18333 ft 407 kts 127°
2026-05-07 16:52 53.65839 -3.88707 18786 ft 411 kts 127°
2026-05-07 16:52 53.64211 -3.84794 19276 ft 415 kts 127°
2026-05-07 16:52 53.62526 -3.80751 19778 ft 418 kts 127°
2026-05-07 16:52 53.60870 -3.76785 20269 ft 421 kts 127°
2026-05-07 16:53 53.59176 -3.72740 20743 ft 424 kts 127°
2026-05-07 16:53 53.57470 -3.68672 21199 ft 427 kts 127°
2026-05-07 16:53 53.55750 -3.64578 21645 ft 430 kts 128°
2026-05-07 16:53 53.54017 -3.60463 22081 ft 432 kts 127°
2026-05-07 16:54 53.52273 -3.56332 22535 ft 434 kts 127°
2026-05-07 16:54 53.50520 -3.52183 22967 ft 437 kts 127°
2026-05-07 16:54 53.48757 -3.48011 23381 ft 439 kts 127°
2026-05-07 16:54 53.47056 -3.43728 23745 ft 443 kts 122°
2026-05-07 16:55 53.45708 -3.39051 24101 ft 447 kts 115°
2026-05-07 16:55 53.44497 -3.34234 24465 ft 449 kts 115°
2026-05-07 16:55 53.43278 -3.29413 24832 ft 450 kts 115°
2026-05-07 16:55 53.42047 -3.24573 25211 ft 452 kts 115°
2026-05-07 16:56 53.40734 -3.19787 25567 ft 452 kts 121°
2026-05-07 16:56 53.39037 -3.15379 25922 ft 450 kts 130°
2026-05-07 16:56 53.34560 -3.08131 26639 ft 448 kts 147°
2026-05-07 16:57 53.31987 -3.05200 27131 ft 446 kts 147°
2026-05-07 16:57 53.29428 -3.02298 27722 ft 443 kts 147°
2026-05-07 16:57 53.26890 -2.99417 28292 ft 440 kts 147°
2026-05-07 16:57 53.24365 -2.96550 28853 ft 438 kts 147°
2026-05-07 16:58 53.21852 -2.93699 29418 ft 435 kts 147°
2026-05-07 16:58 53.19349 -2.90864 29917 ft 435 kts 147°
2026-05-07 16:58 53.16850 -2.88035 30362 ft 434 kts 147°
2026-05-07 16:58 53.14355 -2.85211 30802 ft 433 kts 147°
2026-05-07 16:59 53.11866 -2.82399 31253 ft 432 kts 147°
2026-05-07 16:59 53.09382 -2.79599 31715 ft 431 kts 147°
2026-05-07 16:59 53.06906 -2.76814 32174 ft 429 kts 147°
2026-05-07 16:59 53.04434 -2.74034 32641 ft 428 kts 147°
2026-05-07 17:00 53.01968 -2.71265 32955 ft 428 kts 147°
2026-05-07 17:00 52.99491 -2.68489 33023 ft 433 kts 147°
2026-05-07 17:00 52.94442 -2.62857 33030 ft 442 kts 148°
2026-05-07 17:01 52.89322 -2.57152 33026 ft 444 kts 148°
2026-05-07 17:01 52.84190 -2.51450 33017 ft 444 kts 147°
2026-05-07 17:02 52.79069 -2.45780 33023 ft 443 kts 147°
2026-05-07 17:02 52.73984 -2.40167 33021 ft 443 kts 148°
2026-05-07 17:03 52.68853 -2.34515 33001 ft 444 kts 148°
2026-05-07 17:03 52.63704 -2.28861 33003 ft 445 kts 148°
2026-05-07 17:04 52.58542 -2.23209 33010 ft 446 kts 148°
2026-05-07 17:04 52.53373 -2.17558 33009 ft 447 kts 148°
2026-05-07 17:05 52.48192 -2.11916 32996 ft 447 kts 148°
2026-05-07 17:05 52.42990 -2.06269 32999 ft 449 kts 148°
2026-05-07 17:06 52.37795 -2.00636 33048 ft 447 kts 148°
2026-05-07 17:06 52.32624 -1.95051 33052 ft 444 kts 148°
2026-05-07 17:07 52.27471 -1.89511 33050 ft 442 kts 148°
2026-05-07 17:07 52.22333 -1.83993 33025 ft 442 kts 149°
2026-05-07 17:08 52.17183 -1.78477 33026 ft 443 kts 149°
2026-05-07 17:08 52.12024 -1.72980 33028 ft 444 kts 149°
2026-05-07 17:09 52.06854 -1.67479 33029 ft 444 kts 149°
2026-05-07 17:09 52.01685 -1.61984 33009 ft 444 kts 149°
2026-05-07 17:10 51.96504 -1.56497 33008 ft 445 kts 149°
2026-05-07 17:10 51.93907 -1.53751 32529 ft 447 kts 149°
2026-05-07 17:10 51.91277 -1.50977 31491 ft 454 kts 149°
2026-05-07 17:11 51.88631 -1.48192 30302 ft 454 kts 149°
2026-05-07 17:11 51.85970 -1.45399 28541 ft 458 kts 149°
2026-05-07 17:11 51.83286 -1.42581 26736 ft 461 kts 149°
2026-05-07 17:11 51.80590 -1.39754 24912 ft 463 kts 149°
2026-05-07 17:12 51.77875 -1.36912 23157 ft 465 kts 149°
2026-05-07 17:12 51.75199 -1.34108 21672 ft 453 kts 149°
2026-05-07 17:12 51.72583 -1.31366 20247 ft 443 kts 149°
2026-05-07 17:12 51.70023 -1.28688 18889 ft 434 kts 149°
2026-05-07 17:13 51.67512 -1.26073 17455 ft 426 kts 149°
2026-05-07 17:13 51.65042 -1.23510 16133 ft 423 kts 149°
2026-05-07 17:13 51.62586 -1.20971 15492 ft 416 kts 149°
2026-05-07 17:13 51.60153 -1.18456 15227 ft 414 kts 149°
2026-05-07 17:14 51.57735 -1.15957 15045 ft 413 kts 149°
2026-05-07 17:14 51.55323 -1.13465 15018 ft 412 kts 149°
2026-05-07 17:14 51.53722 -1.11813 15030 ft 413 kts 149°
2026-05-07 17:14 51.50521 -1.08508 15029 ft 413 kts 149°
2026-05-07 17:15 51.48889 -1.06824 15030 ft 413 kts 149°
2026-05-07 17:15 51.45695 -1.03527 15026 ft 406 kts 149°
2026-05-07 17:15 51.43386 -1.01145 15029 ft 383 kts 149°
2026-05-07 17:15 51.41899 -0.99612 15031 ft 369 kts 149°
2026-05-07 17:16 51.39141 -0.96780 15034 ft 343 kts 149°
2026-05-07 17:16 51.37810 -0.95413 15028 ft 331 kts 149°
2026-05-07 17:16 51.35918 -0.93471 15045 ft 315 kts 149°
2026-05-07 17:16 51.34101 -0.91610 15047 ft 308 kts 149°
2026-05-07 17:17 51.32299 -0.89769 15050 ft 307 kts 149°
2026-05-07 17:17 51.30521 -0.87956 15056 ft 307 kts 149°
2026-05-07 17:17 51.28691 -0.86095 15057 ft 308 kts 149°
2026-05-07 17:17 51.26887 -0.84261 15057 ft 308 kts 149°
2026-05-07 17:18 51.25106 -0.82452 15057 ft 308 kts 149°
2026-05-07 17:18 51.23298 -0.80619 15057 ft 308 kts 149°
2026-05-07 17:18 51.21491 -0.78785 15057 ft 308 kts 149°
2026-05-07 17:18 51.19692 -0.76959 14871 ft 305 kts 149°
2026-05-07 17:19 51.17907 -0.75146 14532 ft 303 kts 149°
2026-05-07 17:19 51.16130 -0.73342 14206 ft 302 kts 149°
2026-05-07 17:19 51.14365 -0.71553 13889 ft 300 kts 149°
2026-05-07 17:19 51.12607 -0.69777 13536 ft 298 kts 149°
2026-05-07 17:20 51.10858 -0.68018 13181 ft 297 kts 149°
2026-05-07 17:20 51.09115 -0.66267 12817 ft 295 kts 149°
2026-05-07 17:20 51.07385 -0.64524 12482 ft 294 kts 149°
2026-05-07 17:20 51.05774 -0.62531 12116 ft 295 kts 135°
2026-05-07 17:21 51.04575 -0.59888 11776 ft 296 kts 119°
2026-05-07 17:21 51.03661 -0.56954 11416 ft 296 kts 118°
2026-05-07 17:21 51.02748 -0.54026 11076 ft 295 kts 118°
2026-05-07 17:21 51.01836 -0.51115 10746 ft 294 kts 118°
2026-05-07 17:22 51.00929 -0.48218 10415 ft 293 kts 118°
2026-05-07 17:22 51.00021 -0.45327 10094 ft 292 kts 118°
2026-05-07 17:22 50.99116 -0.42453 9762 ft 290 kts 118°
2026-05-07 17:22 50.98214 -0.39593 9422 ft 289 kts 118°
2026-05-07 17:23 50.97310 -0.36762 9073 ft 287 kts 121°
2026-05-07 17:23 50.96017 -0.34432 8772 ft 280 kts 148°
2026-05-07 17:23 50.94243 -0.33319 8452 ft 274 kts 175°
2026-05-07 17:23 50.92374 -0.33634 8084 ft 272 kts 202°
2026-05-07 17:24 50.90831 -0.35295 7728 ft 270 kts 230°
2026-05-07 17:24 50.89972 -0.37904 7371 ft 270 kts 258°
2026-05-07 17:24 50.89998 -0.40846 7011 ft 270 kts 286°
2026-05-07 17:24 50.90905 -0.43417 6656 ft 270 kts 315°
2026-05-07 17:25 50.92464 -0.44983 6329 ft 267 kts 343°
2026-05-07 17:25 50.94273 -0.45639 6027 ft 265 kts 351°
2026-05-07 17:25 50.96099 -0.46139 6005 ft 268 kts 351°
2026-05-07 17:25 50.97938 -0.46630 5879 ft 267 kts 351°
2026-05-07 17:26 50.99769 -0.47123 5543 ft 267 kts 351°
2026-05-07 17:26 51.01596 -0.47617 5220 ft 266 kts 351°
2026-05-07 17:26 51.03417 -0.48110 4896 ft 265 kts 351°
2026-05-07 17:26 51.05232 -0.48571 4565 ft 264 kts 357°
2026-05-07 17:27 51.07008 -0.48118 4244 ft 259 kts 24°
2026-05-07 17:27 51.08606 -0.46807 3893 ft 258 kts 30°
2026-05-07 17:27 51.10119 -0.45415 3711 ft 242 kts 31°
2026-05-07 17:27 51.11518 -0.44099 3492 ft 227 kts 36°
2026-05-07 17:28 51.12450 -0.42144 2963 ft 223 kts 77°
2026-05-07 17:28 51.12346 -0.39777 2648 ft 212 kts 109°
2026-05-07 17:28 51.12151 -0.37545 2395 ft 199 kts 81°
2026-05-07 17:28 51.12558 -0.35491 2117 ft 191 kts 73°
2026-05-07 17:29 51.12848 -0.33455 1866 ft 187 kts 82°
2026-05-07 17:29 51.13104 -0.31440 1609 ft 182 kts 80°
2026-05-07 17:29 51.13359 -0.29556 1392 ft 164 kts 80°
2026-05-07 17:29 51.13590 -0.27882 1163 ft 149 kts 80°
2026-05-07 17:30 51.13807 -0.26314 960 ft 142 kts 79°
2026-05-07 17:30 51.14016 -0.24800 766 ft 139 kts 79°
2026-05-07 17:30 51.14221 -0.23318 575 ft 140 kts 80°
2026-05-07 17:30 51.14430 -0.21800 397 ft 138 kts 78°
2026-05-07 17:31 51.14635 -0.20330 242 ft 137 kts 77°
2026-05-07 17:31 51.14820 -0.19024 212 ft 91 kts 76°
2026-05-07 17:31 51.14924 -0.18265 208 ft 46 kts 75°
2026-05-07 17:31 51.14987 -0.17946 209 ft 23 kts 57°
2026-05-07 17:32 51.15045 -0.17829 208 ft 9 kts 51°
2026-05-07 17:32 51.15074 -0.17773 212 ft 0 kts 38°
2026-05-07 17:32 51.15081 -0.17767 215 ft 2 kts 30°
2026-05-07 17:32 51.15089 -0.17763 206 ft 0 kts 13°
2026-05-07 17:33 51.15094 -0.17762 206 ft 3 kts
2026-05-07 17:33 51.15098 -0.17762 206 ft 0 kts
2026-05-07 17:34 51.15113 -0.17762 208 ft 4 kts 359°
2026-05-07 17:35 51.15155 -0.17767 205 ft 8 kts 353°
2026-05-07 17:35 51.15217 -0.17782 207 ft 10 kts 352°
2026-05-07 17:35 51.15261 -0.17743 205 ft 7 kts 65°
2026-05-07 17:35 51.15275 -0.17655 211 ft 9 kts 78°
2026-05-07 17:36 51.15290 -0.17538 213 ft 12 kts 78°
2026-05-07 17:36 51.15307 -0.17401 216 ft 12 kts 60°
2026-05-07 17:36 51.15388 -0.17388 208 ft 14 kts 348°
2026-05-07 17:36 51.15479 -0.17418 205 ft 13 kts 348°
2026-05-07 17:37 51.15537 -0.17464 209 ft 9 kts 297°
2026-05-07 17:37 51.15535 -0.17542 207 ft 4 kts 246°
2026-05-07 17:37 51.15509 -0.17546 205 ft 4 kts 161°
2026-05-07 17:37 51.15474 -0.17534 205 ft 3 kts 168°
2026-05-07 17:38 51.15461 -0.17529 205 ft 0 kts 167°